SCP
0 0 0 0 0 0 0 0 0 0 0 0 0 0 0 0 0 0 0 0 0 0
0 0 0 0 0 0 0 0 0 0 0 0 0 0 0 0 0 0 0 0 0 0
0 0 0 0 0 0 0 0 0 0 0 0 0 0 0 0 0 0 0 0 0 0
0 0 0 0 0 0 0 0 0 0 0 0 0 0 0 0 0 0 0 0 0 0
0 0 0 0 0 0 0 0 0 0 0 0 0 0 0 0 0 0 0 0 0 0
0 0 0 0 0 0 0 0 0 0 0 0 0 0 0 0 0 0 0 0 0 0
0 0 0 0 0 0 0 0 0 0 0 0 0 0 0 0 0 0 0 0 0 0
0 0 0 0 0 0 0 0 0 0 0 0 0 0 0 0 0 0 0 0 0 0
0 0 0 0 0 0 0 0 0 0 0 0 0 0 0 0 0 0 0 0 0 0
0 0 0 0 0 0 0 0 0 0 0 0 0 0 0 0 0 0 0 0 0 0
0 0 0 0 0 0 0 0 0 0 0 0 0 0 0 0 0 0 0 0 0 0
0 0 0 0 0 0 0 0 0 0 0 0 0 0 0 0 0 0 0 0 0 0
0 0 0 0 0 0 0 0 0 0 0 0 0 0 0 0 0 0 0 0 0 0
0 0 0 0 0 0 0 0 0 0 0 0 0 0 0 0 0 0 0 0 0 0
Wind_Speed_500mb
67 75 78 77 74 68 61 64 64 66 63 59 53 48 43 38 34 30 24 19 15 10
73 77 80 77 80 71 68 68 72 72 66 60 55 48 41 36 33 29 23 18 14 9
77 79 79 81 78 72 70 74 79 76 69 63 56 49 44 38 34 27 22 17 11 6
75 78 78 79 80 74 76 81 82 78 72 65 58 51 43 35 29 25 20 15 10 7
70 74 74 76 78 78 81 85 84 79 73 65 57 48 40 32 27 22 17 13 12 11
75 76 76 76 78 78 83 88 85 80 74 66 56 47 39 31 24 20 14 14 15 14
78 78 76 73 77 81 88 92 87 80 73 65 56 48 42 35 29 16 19 22 20 19
78 78 76 75 76 84 94 93 87 81 74 65 58 52 44 36 23 24 31 26 27 25
79 82 82 78 80 89 96 93 85 78 71 66 59 52 44 34 31 30 34 35 32 32
83 86 86 82 84 95 97 90 85 79 73 67 61 56 41 38 41 39 42 41 40 41
90 89 89 87 88 94 94 91 86 80 75 69 63 58 45 56 40 46 49 46 48 47
84 84 86 84 88 91 87 86 85 80 77 71 65 53 61 57 48 51 53 51 54 54
75 76 80 79 83 84 82 83 82 80 75 69 56 71 68 56 54 53 56 56 62 58
62 67 71 71 76 77 77 78 78 76 71 64 71 76 64 54 56 54 57 64 67 62
Wind_Direction_500mb
215 219 222 214 211 206 215 214 202 193 191 191 192 194 194 194 194 194 193 194 190 186
219 222 215 219 210 209 208 211 199 194 193 195 196 196 195 196 197 192 192 189 185 185
220 221 220 220 213 212 208 206 198 195 195 196 196 195 196 195 192 190 188 185 188 190
226 224 224 221 215 213 208 204 200 199 196 197 197 196 195 192 192 189 193 190 197 218
228 228 224 221 218 215 207 204 201 200 198 198 198 198 194 195 194 195 202 206 215 225
230 230 228 225 221 216 209 206 202 201 200 198 198 196 193 194 200 204 216 233 231 234
232 232 232 230 225 214 209 207 205 203 201 198 197 196 196 195 201 206 263 241 241 247
234 234 230 228 223 216 211 208 208 205 201 199 198 198 198 199 200 250 245 250 246 252
233 234 232 229 222 215 211 210 208 206 205 201 201 200 200 201 235 239 254 252 254 257
230 233 233 230 222 214 212 211 210 209 208 207 205 203 203 219 239 235 253 252 257 259
229 230 232 229 222 216 213 213 212 211 211 210 208 205 221 228 231 238 251 254 261 262
231 230 230 226 221 217 216 215 216 215 214 212 210 217 231 234 229 243 252 259 267 266
231 231 230 225 220 218 220 221 219 219 218 216 213 234 244 242 238 244 251 259 266 269
233 232 231 226 222 222 223 223 222 221 219 216 233 242 251 245 248 246 257 264 266 271
Wind_Speed_850mb
67 75 78 77 74 68 61 64 64 66 63 59 53 48 43 38 34 30 24 19 15 10
73 77 80 77 80 71 68 68 72 72 66 60 55 48 41 36 33 29 23 18 14 9
77 79 79 81 78 72 70 74 79 76 69 63 56 49 44 38 34 27 22 17 11 6
75 78 78 79 80 74 76 81 82 78 72 65 58 51 43 35 29 25 20 15 10 7
70 74 74 76 78 78 81 85 84 79 73 65 57 48 40 32 27 22 17 13 12 11
75 76 76 76 78 78 83 88 85 80 74 66 56 47 39 31 24 20 14 14 15 14
78 78 76 73 77 81 88 92 87 80 73 65 56 48 42 35 29 16 19 22 20 19
78 78 76 75 76 84 94 93 87 81 74 65 58 52 44 36 23 24 31 26 27 25
79 82 82 78 80 89 96 93 85 78 71 66 59 52 44 34 31 30 34 35 32 32
83 86 86 82 84 95 97 90 85 79 73 67 61 56 41 38 41 39 42 41 40 41
90 89 89 87 88 94 94 91 86 80 75 69 63 58 45 56 40 46 49 46 48 47
84 84 86 84 88 91 87 86 85 80 77 71 65 53 61 57 48 51 53 51 54 54
75 76 80 79 83 84 82 83 82 80 75 69 56 71 68 56 54 53 56 56 62 58
62 67 71 71 76 77 77 78 78 76 71 64 71 76 64 54 56 54 57 64 67 62
Wind_Direction_850mb
215 219 222 214 211 206 215 214 202 193 191 191 192 194 194 194 194 194 193 194 190 186
219 222 215 219 210 209 208 211 199 194 193 195 196 196 195 196 197 192 192 189 185 185
220 221 220 220 213 212 208 206 198 195 195 196 196 195 196 195 192 190 188 185 188 190
226 224 224 221 215 213 208 204 200 199 196 197 197 196 195 192 192 189 193 190 197 218
228 228 224 221 218 215 207 204 201 200 198 198 198 198 194 195 194 195 202 206 215 225
230 230 228 225 221 216 209 206 202 201 200 198 198 196 193 194 200 204 216 233 231 234
232 232 232 230 225 214 209 207 205 203 201 198 197 196 196 195 201 206 263 241 241 247
234 234 230 228 223 216 211 208 208 205 201 199 198 198 198 199 200 250 245 250 246 252
233 234 232 229 222 215 211 210 208 206 205 201 201 200 200 201 235 239 254 252 254 257
230 233 233 230 222 214 212 211 210 209 208 207 205 203 203 219 239 235 253 252 257 259
229 230 232 229 222 216 213 213 212 211 211 210 208 205 221 228 231 238 251 254 261 262
231 230 230 226 221 217 216 215 216 215 214 212 210 217 231 234 229 243 252 259 267 266
231 231 230 225 220 218 220 221 219 219 218 216 213 234 244 242 238 244 251 259 266 269
233 232 231 226 222 222 223 223 222 221 219 216 233 242 251 245 248 246 257 264 266 271